GFSFLT1_925_temp_156.txt.gz
Temp
9 8 7 7 7 6 6 6 5 6 6 7 7 8 8 7 7 6 5 6 5 4 5 6 5 6 6 8 10 12 12 15
9 8 7 7 6 6 5 5 5 5 6 6 7 7 7 7 6 5 5 4 4 3 4 5 5 5 5 6 7 8 12 13
9 8 8 7 6 5 5 5 5 5 5 5 5 5 6 6 5 5 4 4 3 3 3 3 4 4 4 5 6 8 9 13
10 8 7 7 6 5 5 4 4 4 3 4 4 5 6 5 5 5 4 3 3 2 2 2 2 3 3 4 5 6 8 10
9 8 7 6 5 4 4 4 4 3 2 3 3 4 4 3 3 3 3 3 2 2 1 1 2 1 2 2 4 5 6 8
9 7 6 5 4 4 4 4 4 3 2 1 2 2 2 2 2 2 2 3 2 2 1 1 1 1 1 1 2 3 4 4
7 6 5 5 4 4 3 3 3 2 1 1 1 1 1 1 1 1 1 2 2 2 0 -0 0 0 -0 -0 1 2 3 3
7 6 5 4 3 3 3 3 3 2 1 1 1 0 0 0 -0 0 -0 0 1 0 -0 -1 -1 -1 -1 -0 -0 1 2 3
6 5 4 3 2 2 2 2 2 1 0 1 1 1 -0 -0 -1 -1 -1 -1 -1 -1 -1 -1 -1 -1 -1 -1 -1 0 1 2
4 3 2 2 1 1 1 1 1 -0 -0 1 1 1 -0 -1 -1 -1 -1 -2 -2 -2 -1 -2 -1 -2 -1 -2 -1 -0 0 2
3 0 -0 -0 -0 0 0 -1 -1 -1 -1 1 1 0 -0 -1 -1 -2 -2 -2 -2 -2 -2 -2 -2 -2 -2 -2 -1 -1 -1 1
1 -2 -3 -2 -3 -2 -1 -2 -2 -3 -2 -1 -0 -1 -1 -1 -1 -2 -3 -2 -3 -3 -3 -3 -3 -3 -2 -2 -2 -2 -2 -2
0 -1 -2 -3 -4 -4 -4 -3 -3 -4 -3 -3 -1 -2 -2 -2 -2 -3 -3 -3 -3 -4 -4 -4 -4 -3 -3 -3 -3 -3 -3 -3
-1 -2 -2 -3 -3 -4 -4 -4 -4 -4 -4 -4 -3 -3 -3 -3 -3 -4 -4 -4 -4 -5 -5 -5 -4 -4 -4 -4 -3 -3 -3 -4
-1 -1 -2 -3 -4 -4 -4 -4 -4 -4 -4 -4 -4 -3 -4 -4 -4 -4 -5 -5 -5 -6 -6 -6 -5 -5 -5 -5 -4 -4 -4 -4
-0 -1 -1 -2 -3 -3 -2 -3 -3 -3 -3 -4 -3 -3 -4 -4 -4 -4 -4 -5 -5 -6 -6 -6 -6 -6 -6 -6 -5 -5 -5 -5
1 1 0 -0 -1 -1 -1 -2 -2 -2 -2 -3 -2 -2 -2 -3 -3 -3 -3 -4 -4 -6 -6 -6 -6 -6 -6 -6 -6 -6 -6 -6
2 2 0 -1 -1 -1 -1 -2 -2 -2 -2 -2 -2 -3 -2 -3 -2 -2 -2 -3 -3 -4 -5 -6 -6 -7 -7 -6 -6 -6 -6 -7
2 0 -1 -1 -1 -2 -2 -2 -2 -2 -2 -3 -3 -3 -3 -3 -3 -3 -3 -3 -3 -3 -4 -5 -5 -7 -8 -8 -6 -5 -6 -7

GFSFLT1_925_temp_159.txt.gz
Temp
14 13 12 12 11 10 10 9 9 9 10 11 11 11 11 10 10 8 8 8 7 5 6 6 6 6 7 6 6 7 9 9
14 12 12 11 10 10 9 9 9 9 10 10 10 10 10 10 9 8 8 7 6 6 5 5 5 5 5 5 6 7 7 9
13 13 12 11 10 9 9 9 8 8 8 9 8 9 9 9 9 8 7 7 6 6 4 4 4 3 4 4 5 5 6 7
14 12 11 11 10 9 9 8 8 7 6 8 8 9 9 9 8 8 6 6 5 5 4 3 3 3 3 3 3 4 4 4
14 13 12 10 9 8 8 8 7 6 6 6 6 7 7 7 7 6 6 6 5 4 3 2 2 2 2 2 2 2 3 4
14 12 11 10 9 8 7 7 7 6 5 5 5 5 5 5 5 5 5 5 5 4 2 2 1 1 1 1 1 1 2 3
12 10 9 9 8 7 7 6 6 5 4 4 4 4 4 4 4 4 4 4 4 3 1 1 1 1 0 0 1 1 2 2
12 11 10 8 7 6 6 6 6 4 4 5 4 4 4 3 3 2 2 2 2 2 1 1 1 0 0 0 0 1 1 1
11 9 8 7 6 6 6 5 5 4 4 4 4 4 4 3 2 2 2 2 1 1 0 0 0 -0 -0 -0 0 0 0 -1
8 7 6 5 5 5 4 4 4 3 2 4 4 3 3 3 2 2 1 1 1 0 -0 -0 -0 -1 -1 -1 -0 -0 -0 -1
6 3 2 3 3 3 3 2 2 1 1 3 3 3 2 2 2 1 0 -0 0 -1 -1 -1 -1 -1 -1 -1 -1 -1 -1 -1
2 -1 -1 0 -1 1 1 0 0 -1 -1 1 2 1 1 1 1 -0 -1 -1 -1 -2 -2 -2 -3 -2 -2 -2 -2 -1 -2 -2
4 2 -2 -2 -3 -3 -2 -1 -2 -3 -2 -2 0 0 0 0 -0 -1 -2 -2 -3 -3 -4 -3 -3 -3 -3 -3 -3 -3 -3 -2
0 0 -1 -1 -2 -3 -3 -3 -3 -3 -3 -2 -2 -1 -1 -1 -1 -2 -3 -3 -4 -5 -4 -4 -4 -4 -4 -4 -3 -3 -4 -3
0 -1 -2 -2 -2 -3 -3 -3 -3 -3 -3 -3 -1 -2 -2 -2 -2 -2 -3 -3 -4 -5 -5 -5 -5 -5 -5 -5 -4 -4 -4 -4
1 1 0 -2 -3 -3 -1 -1 -0 -1 -1 -1 -0 -0 -1 -1 -1 -1 -2 -3 -3 -4 -5 -5 -6 -6 -6 -5 -5 -4 -5 -5
4 2 2 2 2 1 1 1 0 0 0 0 0 0 0 -0 -0 -0 -0 -1 -2 -4 -4 -4 -6 -7 -7 -6 -5 -5 -5 -6
5 4 3 3 2 1 2 1 1 1 1 1 0 0 0 0 0 0 0 -0 -1 -2 -3 -3 -4 -7 -7 -6 -4 -5 -5 -6
6 4 3 2 2 1 1 1 1 1 0 0 -0 -0 -0 -0 0 -0 -0 -0 -1 -1 -2 -3 -3 -6 -7 -7 -4 -4 -5 -6

GFSFLT1_925_temp_162.txt.gz
Temp
15 15 13 13 12 11 11 10 9 10 11 11 11 11 11 11 10 9 8 7 7 6 5 5 5 4 4 4 5 5 6 7
14 13 12 13 11 11 10 10 9 9 10 10 10 10 10 10 10 9 7 7 6 6 5 4 4 4 4 4 4 4 5 5
15 13 12 11 11 10 10 10 9 8 8 9 8 9 10 10 9 8 7 6 6 5 4 3 3 3 3 3 2 3 4 4
15 14 13 11 10 10 10 9 9 7 7 8 8 9 9 8 7 7 7 6 5 5 3 2 2 2 2 2 2 2 2 3
16 14 13 11 10 9 9 9 8 7 6 6 6 6 6 6 6 6 6 5 5 4 2 2 2 1 1 1 1 1 1 2
15 14 12 11 10 8 8 8 7 6 5 5 5 5 5 5 5 5 4 4 4 3 2 1 1 1 1 1 1 1 1 1
14 12 11 10 9 8 7 7 6 5 5 5 5 5 5 5 4 3 3 3 3 2 1 1 0 0 0 0 0 0 1 1
12 11 10 9 8 7 7 7 6 5 5 5 5 5 5 4 3 3 3 2 2 2 1 0 -0 -0 -1 -1 -1 -0 0 0
12 11 9 8 7 6 6 6 5 4 4 5 5 4 4 4 3 2 2 2 1 1 -0 -1 -1 -1 -1 -1 -1 -1 -0 -1
10 8 7 6 6 5 4 4 4 3 3 4 4 3 3 3 3 2 1 0 0 -0 -1 -2 -2 -2 -2 -2 -2 -1 -2 -1
8 5 4 4 4 4 3 3 2 1 2 2 3 3 2 2 2 1 -1 -1 -1 -2 -3 -3 -3 -3 -3 -3 -3 -2 -2 -2
2 -0 0 0 0 1 1 0 -0 -1 -1 0 1 1 1 1 1 -1 -2 -2 -3 -3 -3 -4 -4 -4 -4 -4 -3 -3 -3 -3
3 1 -1 -2 -2 -2 -1 -1 -2 -2 -2 -2 -1 0 -0 0 -0 -1 -3 -3 -4 -4 -4 -4 -4 -5 -5 -4 -4 -4 -4 -4
1 2 1 -1 -2 -3 -2 -2 -3 -3 -2 -2 -1 -1 -1 -1 -1 -2 -2 -3 -3 -4 -4 -5 -5 -6 -6 -5 -4 -4 -4 -5
1 -0 -1 -1 -2 -2 -2 -2 -2 -2 -2 -1 -0 -1 -1 -1 -1 -1 -2 -2 -3 -4 -4 -5 -6 -6 -6 -5 -4 -4 -5 -5
1 1 -1 -2 -2 -2 -1 -0 -0 -0 -0 0 0 0 -0 -0 -0 -0 -1 -2 -3 -3 -4 -5 -5 -7 -6 -5 -4 -5 -5 -6
1 1 2 1 -0 -0 2 1 1 1 1 1 1 1 1 1 1 1 0 -0 -1 -2 -3 -4 -5 -7 -6 -5 -4 -5 -5 -6
2 4 4 3 3 3 2 2 2 2 2 1 1 1 1 1 1 1 0 -0 -1 -2 -3 -3 -4 -6 -7 -5 -4 -4 -5 -6
6 5 4 3 2 2 2 2 2 1 1 1 1 1 1 1 1 0 0 -0 -1 -1 -2 -3 -4 -6 -7 -7 -5 -5 -5 -6

GFSFLT1_925_temp_168.txt.gz
Temp
11 11 11 11 10 10 9 9 9 9 10 10 9 8 7 7 6 6 6 5 4 4 3 2 2 2 1 1 1 1 2 2
10 10 10 10 10 9 8 9 8 9 9 9 7 6 6 6 6 5 5 4 4 3 2 2 1 1 1 1 1 1 1 2
9 9 10 10 9 8 8 7 7 7 7 7 7 6 5 5 5 4 4 3 3 2 1 1 1 1 0 0 1 1 1 1
9 8 9 9 8 7 7 7 6 6 6 7 6 6 5 4 4 3 3 2 2 1 0 0 0 0 -0 -0 0 1 1 1
10 8 8 8 7 7 7 6 6 5 5 5 5 4 3 3 3 3 2 1 1 0 -0 -0 -1 -1 -1 -1 -0 -0 0 1
8 7 7 7 7 7 6 6 5 5 5 5 4 4 3 3 2 2 1 1 -0 -1 -1 -1 -2 -2 -1 -1 -1 -1 -1 -1
7 6 7 7 7 6 6 5 5 5 4 4 4 3 3 2 1 1 0 -0 -1 -2 -2 -2 -2 -2 -2 -2 -2 -1 -1 -1
6 5 5 6 6 5 5 5 4 4 4 4 3 3 2 1 1 -0 -1 -1 -2 -3 -3 -3 -3 -3 -2 -2 -2 -2 -2 -2
6 6 5 4 4 4 4 4 3 3 3 2 2 2 1 0 -0 -1 -2 -2 -3 -3 -3 -3 -4 -3 -3 -2 -3 -3 -3 -3
6 4 3 4 4 3 3 3 2 2 2 2 2 1 1 -0 -1 -2 -3 -3 -3 -3 -4 -4 -4 -4 -3 -3 -3 -4 -4 -4
3 2 2 2 2 2 2 2 2 1 1 1 1 0 -0 -1 -1 -2 -3 -4 -4 -4 -4 -5 -5 -4 -4 -4 -4 -4 -5 -5
0 -1 0 1 1 1 1 1 0 -0 -0 -0 0 -0 -1 -1 -1 -3 -3 -4 -4 -4 -4 -5 -5 -5 -4 -5 -5 -5 -6 -7
-1 -1 -1 -0 -0 -0 -0 -1 -1 -1 -1 -1 -1 -1 -1 -1 -2 -3 -3 -3 -4 -4 -4 -5 -5 -5 -5 -5 -6 -6 -7 -8
-2 -2 -2 -2 -1 -1 -1 -1 -2 -1 -1 -1 -1 -1 -1 -1 -1 -2 -3 -3 -4 -4 -5 -5 -5 -5 -5 -5 -6 -6 -7 -8
-1 -3 -3 -2 -2 -2 -2 -1 -1 -1 -1 -1 -1 -1 -1 -1 -1 -2 -3 -3 -4 -4 -4 -5 -5 -5 -5 -5 -6 -6 -7 -8
-0 -1 -2 -3 -2 -2 -2 -1 -1 -1 -1 -1 -0 -0 -0 -1 -1 -2 -3 -3 -3 -4 -5 -5 -6 -6 -5 -6 -6 -7 -7 -8
1 0 -1 -1 -2 -2 -2 -1 -1 -1 -0 -0 0 0 -0 -0 -1 -1 -2 -3 -3 -4 -5 -6 -7 -6 -6 -6 -6 -7 -8 -8
1 1 0 -1 -1 -1 -1 -0 0 -0 -0 0 0 0 0 -0 -1 -1 -2 -3 -3 -4 -5 -6 -7 -7 -7 -7 -6 -7 -8 -8
2 2 0 -1 -1 -0 0 1 1 0 0 0 0 0 -0 -0 -1 -1 -2 -2 -3 -4 -5 -5 -6 -7 -7 -8 -7 -7 -8 -8

GFSFLT1_925_temp_171.txt.gz
Temp
9 10 10 10 10 9 9 9 9 9 8 8 7 6 6 5 5 4 4 4 4 4 3 2 2 1 1 1 1 1 1 1
9 9 9 9 9 9 9 9 8 9 8 7 6 5 5 5 4 4 3 3 3 2 2 2 1 0 0 0 0 1 1 1
7 8 8 8 8 8 8 8 8 8 8 6 6 5 4 3 3 3 2 2 2 1 1 0 -0 -0 -0 -0 0 0 1 1
8 7 7 7 7 7 7 7 6 6 7 6 5 4 4 3 2 2 1 1 1 0 -0 -0 -1 -1 -1 -1 -1 -0 0 0
8 6 6 6 7 7 7 6 6 5 6 6 5 4 2 2 1 1 1 0 -0 -0 -1 -1 -1 -1 -1 -1 -1 -1 -1 -0
7 6 6 6 6 6 6 5 5 5 5 4 4 3 2 2 1 0 -0 -1 -1 -1 -2 -2 -2 -2 -2 -2 -2 -2 -2 -1
5 5 6 6 5 5 5 5 4 4 4 4 3 2 2 1 0 -0 -1 -2 -2 -2 -3 -3 -3 -2 -2 -2 -2 -2 -2 -2
4 4 5 5 4 5 4 4 4 3 3 3 2 2 1 0 -1 -1 -2 -3 -3 -3 -3 -3 -3 -3 -2 -2 -3 -3 -3 -3
5 5 5 3 4 4 3 3 3 3 2 2 2 1 0 -1 -1 -2 -2 -3 -3 -4 -4 -4 -3 -3 -3 -3 -3 -4 -4 -4
5 3 3 3 3 3 3 2 2 2 1 1 1 0 -0 -1 -2 -2 -3 -3 -4 -4 -4 -4 -4 -3 -3 -4 -4 -5 -5 -5
2 1 2 2 3 2 2 2 1 1 1 1 0 -0 -1 -1 -2 -3 -3 -4 -4 -4 -4 -4 -4 -4 -4 -5 -5 -5 -6 -6
1 -0 1 1 1 1 1 1 0 0 0 -0 -0 -1 -1 -2 -3 -3 -3 -4 -3 -4 -4 -4 -5 -5 -5 -5 -6 -6 -7 -7
-1 -1 -1 -0 0 -0 -0 -0 -0 -0 -0 -0 -1 -1 -1 -2 -3 -3 -3 -4 -4 -4 -5 -5 -5 -5 -5 -6 -6 -7 -7 -8
-1 -2 -2 -2 -1 -1 -1 -1 -1 -1 -1 -1 -1 -1 -1 -2 -3 -3 -4 -4 -4 -4 -5 -5 -5 -5 -6 -6 -6 -7 -7 -8
-1 -3 -3 -3 -2 -1 -1 -1 -1 -1 -1 -1 -1 -1 -1 -2 -2 -3 -4 -4 -4 -5 -5 -5 -5 -6 -5 -6 -6 -7 -7 -8
-1 -2 -4 -3 -2 -2 -1 -1 -1 -1 -1 -1 -1 -1 -1 -2 -2 -3 -3 -4 -5 -4 -5 -5 -5 -6 -6 -6 -6 -7 -7 -8
1 -1 -2 -2 -2 -2 -1 -1 -1 -1 -1 -0 -0 -1 -1 -1 -2 -3 -3 -4 -5 -5 -5 -5 -7 -7 -7 -7 -7 -7 -8 -8
1 -0 -0 -1 -1 -2 -2 -1 -1 -0 -0 -0 -0 -0 -1 -1 -2 -3 -3 -4 -4 -5 -6 -6 -7 -7 -7 -8 -7 -8 -8 -8
1 1 1 -0 -1 -1 -1 -0 -0 -0 -0 -0 -0 -0 -1 -1 -2 -2 -3 -4 -4 -5 -6 -6 -6 -7 -7 -7 -7 -8 -8 -8

GFSFLT1_925_temp_174.txt.gz
Temp
8 9 9 9 9 10 9 9 8 8 8 7 7 6 6 5 5 4 4 3 3 3 2 2 2 2 2 2 2 2 1 2
8 8 8 8 9 9 9 9 8 8 7 7 6 5 4 4 3 3 3 2 2 2 2 2 2 1 1 0 1 1 1 1
6 7 7 8 8 8 8 8 8 7 7 6 5 4 3 3 3 2 2 2 1 1 0 0 0 0 0 -0 -0 -0 0 1
6 6 6 7 7 7 7 7 7 7 7 6 5 4 3 2 2 1 1 1 0 0 -0 -0 -1 -1 -1 -1 -1 -1 -1 -0
7 5 5 7 7 6 6 6 6 6 5 5 5 4 2 1 1 1 0 -0 -1 -1 -1 -1 -1 -1 -2 -2 -2 -2 -2 -1
5 5 6 7 6 6 6 5 5 5 5 5 4 3 2 1 1 0 -1 -1 -1 -1 -2 -2 -2 -2 -2 -2 -2 -2 -3 -3
4 5 6 5 5 5 5 5 4 4 4 4 4 3 1 1 -0 -0 -1 -1 -2 -2 -2 -2 -2 -3 -3 -3 -3 -3 -3 -4
4 4 4 4 4 4 4 4 3 3 3 3 2 2 1 0 -1 -1 -2 -2 -3 -3 -3 -3 -3 -3 -3 -3 -3 -4 -4 -4
5 5 3 3 3 3 3 3 3 3 3 2 1 1 0 -1 -1 -2 -3 -3 -3 -3 -3 -3 -3 -3 -3 -4 -4 -5 -5 -5
5 2 3 3 3 3 3 2 2 2 2 1 1 0 -0 -1 -2 -3 -3 -2 -3 -3 -3 -3 -3 -3 -4 -4 -4 -5 -5 -6
3 1 2 3 3 2 2 2 2 1 1 1 -0 -1 -1 -2 -2 -3 -3 -3 -3 -4 -4 -4 -4 -4 -4 -4 -5 -6 -6 -7
0 -0 1 2 2 1 1 1 1 0 1 0 -1 -1 -2 -2 -3 -3 -3 -3 -4 -4 -4 -4 -4 -4 -4 -4 -5 -5 -6 -7
-0 -1 -0 1 1 0 0 0 0 0 0 -1 -1 -2 -2 -3 -3 -3 -3 -3 -4 -4 -4 -4 -5 -5 -5 -5 -6 -6 -7 -7
-1 -2 -2 -2 -1 -1 -0 -0 -0 -1 -1 -1 -1 -2 -2 -3 -3 -4 -3 -3 -4 -4 -4 -5 -5 -5 -5 -6 -6 -6 -7 -7
-1 -2 -3 -3 -1 -1 -1 -1 -1 -1 -1 -1 -2 -2 -2 -3 -3 -3 -4 -4 -4 -5 -5 -5 -5 -5 -5 -6 -6 -7 -7 -7
-0 -1 -2 -3 -2 -2 -1 -1 -2 -1 -1 -1 -2 -2 -2 -3 -3 -4 -4 -4 -4 -5 -5 -5 -5 -6 -6 -6 -6 -7 -7 -7
0 -1 -2 -3 -3 -2 -2 -2 -2 -1 -1 -1 -2 -2 -2 -2 -3 -3 -4 -4 -5 -5 -5 -6 -6 -7 -7 -7 -7 -7 -8 -8
0 -1 -1 -2 -2 -2 -2 -2 -1 -1 -1 -1 -1 -1 -2 -2 -3 -3 -4 -5 -5 -5 -6 -7 -7 -7 -7 -8 -7 -7 -8 -8
1 -0 -1 -1 -1 -1 -1 -1 -1 -1 -1 -1 -1 -1 -1 -2 -2 -3 -4 -4 -4 -5 -6 -6 -6 -7 -8 -8 -7 -8 -8 -8

GFSFLT1_925_temp_177.txt.gz
Temp
10 9 9 8 9 9 9 9 9 8 8 7 5 5 4 3 3 2 3 3 4 2 2 1 2 2 2 2 3 3 3 4
9 8 8 8 8 8 8 8 8 7 6 6 5 4 3 3 2 2 2 2 1 1 1 1 1 1 1 1 2 3 3 3
8 7 7 7 8 7 7 7 7 6 6 5 5 3 2 2 1 1 1 1 1 0 -0 -0 -0 1 1 1 1 2 3 2
9 8 7 7 7 7 6 6 6 6 6 6 5 4 3 2 1 1 1 0 -0 -0 -1 -1 -1 -0 -0 -0 -0 0 2 2
10 8 7 7 6 6 6 6 6 6 6 5 5 5 4 2 1 -0 -1 -1 -1 -1 -2 -2 -1 -1 -1 -1 -1 -1 0 1
10 8 9 7 5 5 5 5 5 5 5 4 4 3 2 1 0 -0 -1 -2 -2 -2 -2 -2 -2 -2 -2 -2 -2 -2 -2 -1
8 8 8 6 5 4 4 4 4 4 4 3 3 2 1 1 1 0 -1 -2 -2 -3 -3 -3 -3 -2 -2 -2 -3 -3 -2 -2
8 8 7 5 4 4 4 4 4 3 3 3 2 1 1 0 0 -1 -1 -2 -2 -3 -3 -3 -3 -3 -3 -3 -3 -3 -3 -3
9 9 7 5 4 4 4 4 3 2 2 2 1 0 -0 -1 -1 -1 -2 -2 -3 -4 -4 -4 -4 -4 -4 -4 -4 -4 -4 -4
8 8 5 5 4 3 3 3 2 2 1 0 0 0 -1 -2 -2 -2 -3 -3 -4 -4 -4 -4 -4 -4 -4 -4 -4 -5 -4 -5
8 6 5 4 3 2 2 2 2 1 1 0 -0 -1 -2 -2 -3 -3 -3 -4 -4 -4 -4 -4 -4 -4 -4 -5 -5 -5 -5 -5
6 2 2 2 2 1 1 1 1 0 0 -0 -1 -2 -2 -3 -3 -3 -4 -4 -4 -4 -4 -4 -4 -4 -4 -4 -5 -5 -5 -5
5 3 0 0 1 0 0 0 0 -0 -0 -1 -1 -2 -2 -3 -3 -3 -4 -4 -5 -4 -4 -4 -4 -5 -5 -5 -5 -5 -5 -5
2 2 1 0 -1 -0 1 -0 -0 0 -1 -1 -2 -2 -3 -3 -4 -4 -5 -4 -5 -5 -4 -4 -5 -5 -5 -6 -6 -6 -6 -6
2 1 0 -0 -1 -1 -0 -0 0 -0 -1 -2 -2 -2 -3 -3 -4 -4 -4 -5 -5 -4 -4 -5 -6 -6 -6 -6 -6 -6 -6 -6
2 2 1 -1 -2 -1 -1 -1 -1 -1 -1 -2 -2 -3 -3 -4 -4 -4 -4 -5 -4 -4 -5 -5 -6 -6 -6 -6 -7 -7 -7 -7
4 3 1 0 -0 -1 -0 -1 -1 -2 -1 -1 -2 -2 -3 -4 -4 -5 -5 -5 -5 -5 -5 -5 -6 -7 -8 -7 -7 -8 -8 -8
4 3 1 1 1 0 -0 -0 -2 -2 -1 -1 -2 -2 -3 -3 -4 -4 -4 -5 -6 -6 -5 -5 -6 -7 -8 -7 -7 -7 -8 -9
5 3 1 1 1 0 0 -1 -2 -1 -1 -1 -2 -2 -2 -3 -3 -3 -4 -5 -5 -5 -6 -6 -6 -7 -8 -8 -7 -7 -8 -8

GFSFLT1_925_temp_183.txt.gz
Temp
22 20 20 19 17 16 15 14 13 12 12 11 11 10 10 10 10 8 8 8 7 9 9 8 9 9 9 8 9 10 11 11
21 19 18 18 16 15 15 13 12 12 12 13 12 12 11 10 8 7 7 7 7 7 8 8 8 8 8 8 8 10 11 9
20 18 17 16 15 15 14 13 12 13 14 14 13 12 11 10 8 7 6 6 6 7 7 7 7 8 7 7 7 8 10 9
20 17 15 15 14 14 14 13 13 13 13 11 11 10 9 10 9 8 6 5 5 5 5 6 6 6 6 6 6 7 8 9
20 17 15 15 15 14 14 14 13 12 11 12 12 13 13 11 9 7 6 5 4 5 5 5 5 5 5 5 5 6 6 7
20 18 16 16 15 13 13 13 13 12 11 12 11 12 10 10 8 7 6 5 4 4 4 4 4 4 4 4 4 4 5 6
21 18 16 16 14 13 12 12 12 11 11 11 11 10 10 9 8 8 7 6 5 4 4 4 3 3 3 4 4 3 4 4
21 19 17 16 14 13 12 12 11 10 10 9 9 9 9 9 8 8 7 6 5 4 4 3 3 3 3 3 3 3 3 3
20 19 17 16 14 12 12 11 11 10 9 9 8 8 8 8 7 7 6 6 4 3 3 3 2 2 3 3 3 3 2 3
19 18 17 16 13 12 12 12 11 9 9 8 7 7 7 6 5 5 5 4 3 3 3 2 2 2 2 2 2 3 2 3
18 18 17 15 13 12 11 11 10 9 8 7 6 6 5 5 5 4 4 3 3 2 2 2 2 2 2 3 2 2 2 2
17 15 15 15 13 12 11 11 10 8 7 7 6 5 5 4 4 3 3 3 3 2 2 2 2 2 2 2 2 2 2 2
17 15 13 12 11 11 10 10 9 8 7 6 5 4 4 4 3 3 2 2 2 2 2 2 2 2 2 1 2 1 1 1
14 15 13 10 8 9 9 9 7 6 6 5 5 4 4 3 3 2 2 2 2 2 2 1 1 1 1 1 1 1 0 0
10 9 6 9 7 6 7 7 6 5 6 5 4 4 4 3 2 2 2 2 1 1 1 0 -0 -0 -0 0 1 1 0 -1
16 11 11 6 5 5 6 6 5 5 5 4 4 4 3 3 2 1 1 1 0 -0 -0 -1 -1 -1 -1 -0 -0 -0 -0 -1
18 16 12 10 5 4 5 6 4 5 4 4 4 3 3 2 1 1 1 0 -0 -1 -2 -3 -4 -3 -3 -3 -2 -2 -2 -3
18 17 15 11 7 5 6 6 4 5 4 4 4 3 3 2 1 1 1 0 -0 -2 -3 -3 -5 -4 -3 -4 -5 -4 -5 -6
17 16 14 11 9 7 6 7 5 5 5 5 4 3 3 2 2 1 1 1 0 -0 -1 -2 -3 -4 -4 -5 -6 -6 -6 -6